Council Bluffs, IA

5:57 AM CST on December 10, 2016 (GMT -0600)
Council Bluffs Municipal

Weather History for KCBF - December, 2013

Change the Weather History Date:

Friday, December 6, 2013

  Actual Average Record
Temperature  
Mean Temperature 5 °F -  
Max Temperature 10 °F 42 °F 84 °F (1997)
Min Temperature 0 °F 25 °F -4 °F (2005)
Degree Days  
Heating Degree Days 60    
Moisture  
Dew Point -7 °F    
Average Humidity 61    
Maximum Humidity 72    
Minimum Humidity 48    
Precipitation  
Precipitation 0.00 in - - ()
Sea Level Pressure  
Sea Level Pressure 30.53 in    
Wind  
Wind Speed 10 mph (NNW)    
Max Wind Speed 17 mph    
Max Gust Speed 22 mph    
Visibility 10 miles    
Events Snow    
Averages and records for this station are not official NWS values.
T = Trace of Precipitation, MM = Missing Value Source: NWS Daily Summary

Daily Weather History Graph

Daily Weather History Graph

Search for Another Location

Airport or City:

Trip Planner

Search our weather history database for the weather conditions in past years. The results will help you decide how hot, cold, wet, or windy it might be!

Date:

Astronomy

Dec. 06, 2013 Rise Set
Actual Time 7:34 AM CST 4:53 PM CST
Civil Twilight 7:03 AM CST 5:24 PM CST
Nautical Twilight 6:28 AM CST 5:59 PM CST
Astronomical Twilight 5:55 AM CST 6:32 PM CST
Moon 10:39 AM CST (12/6) 9:28 PM CST (12/6)
Length of Visible Light 10h 21m
Length of Day
9h 19m
Waxing Crescent, 19% of the Moon is Illuminated
Dec 6
Waxing Crescent
Dec 9
First Quarter
Dec 17
Full
Dec 25
Last Quarter
Jan 1
New

Hourly Weather History & Observations

Time (CST) Temp. Windchill Dew Point Humidity Pressure Visibility Wind Dir Wind Speed Gust Speed Precip Events Conditions
12:15 AM 6.8 °F -7.8 °F -4.0 °F 61% 30.41 in 10.0 mi NNW 10.4 mph 16.1 mph N/A   Overcast
12:35 AM 6.8 °F -10.0 °F -5.8 °F 56% 30.42 in 10.0 mi NNW 13.8 mph - N/A   Mostly Cloudy
12:55 AM 6.8 °F -6.9 °F -5.8 °F 56% 30.41 in 10.0 mi NNW 9.2 mph 16.1 mph N/A   Overcast
1:15 AM 6.8 °F -6.9 °F -5.8 °F 56% 30.41 in 10.0 mi NNW 9.2 mph - N/A   Overcast
1:35 AM 6.8 °F -7.8 °F -5.8 °F 56% 30.42 in 10.0 mi NNW 10.4 mph - N/A   Mostly Cloudy
1:55 AM 5.0 °F -9.1 °F -5.8 °F 61% 30.41 in 10.0 mi NNW 9.2 mph 15.0 mph N/A   Overcast
2:15 AM 5.0 °F -8.1 °F -5.8 °F 61% 30.43 in 10.0 mi NW 8.1 mph - N/A   Overcast
2:35 AM 5.0 °F -9.1 °F -5.8 °F 61% 30.43 in 10.0 mi NW 9.2 mph - N/A   Overcast
2:55 AM 3.2 °F -12.2 °F -5.8 °F 66% 30.43 in 10.0 mi NNW 10.4 mph - N/A   Overcast
3:15 AM 3.2 °F -7.8 °F -5.8 °F 66% 30.45 in 10.0 mi NW 5.8 mph - N/A   Mostly Cloudy
3:35 AM 3.2 °F -10.3 °F -5.8 °F 66% 30.45 in 10.0 mi NNW 8.1 mph - N/A   Mostly Cloudy
3:55 AM 3.2 °F -12.2 °F -5.8 °F 66% 30.45 in 10.0 mi NNW 10.4 mph - N/A   Overcast
4:15 AM 3.2 °F -12.2 °F -5.8 °F 66% 30.46 in 10.0 mi NNW 10.4 mph - N/A   Overcast
4:35 AM 3.2 °F -11.3 °F -5.8 °F 66% 30.46 in 10.0 mi NNW 9.2 mph - N/A   Overcast
4:55 AM 1.4 °F -13.5 °F -5.8 °F 72% 30.47 in 10.0 mi NW 9.2 mph - N/A   Mostly Cloudy
5:15 AM 1.4 °F -12.5 °F -7.6 °F 66% 30.47 in 10.0 mi NNW 8.1 mph - N/A   Mostly Cloudy
5:35 AM 1.4 °F -13.5 °F -7.6 °F 66% 30.48 in 10.0 mi NNW 9.2 mph - N/A   Overcast
5:55 AM -0.4 °F -14.7 °F -7.6 °F 72% 30.48 in 10.0 mi NNW 8.1 mph - N/A   Scattered Clouds
6:15 AM -0.4 °F -14.7 °F -7.6 °F 72% 30.48 in 10.0 mi NW 8.1 mph - N/A   Clear
6:35 AM -0.4 °F -13.4 °F -7.6 °F 72% 30.49 in 10.0 mi NW 6.9 mph - N/A   Clear
6:55 AM -0.4 °F -14.7 °F -7.6 °F 72% 30.49 in 10.0 mi NW 8.1 mph - N/A   Clear
7:15 AM -0.4 °F -16.7 °F -7.6 °F 72% 30.49 in 10.0 mi NNW 10.4 mph - N/A   Clear
7:35 AM -0.4 °F -16.7 °F -7.6 °F 72% 30.48 in 10.0 mi NNW 10.4 mph - N/A   Clear
7:55 AM -0.4 °F -16.7 °F -9.4 °F 66% 30.48 in 10.0 mi NNW 10.4 mph - N/A   Clear
8:15 AM -0.4 °F -17.6 °F -9.4 °F 66% 30.50 in 10.0 mi NNW 11.5 mph 19.6 mph N/A   Clear
8:35 AM -0.4 °F -18.4 °F -9.4 °F 66% 30.50 in 10.0 mi NNW 12.7 mph - N/A   Clear
8:55 AM -0.4 °F -19.2 °F -9.4 °F 66% 30.51 in 10.0 mi NNW 13.8 mph - N/A   Clear
9:15 AM 1.4 °F -18.2 °F -9.4 °F 61% 30.51 in 10.0 mi NNW 16.1 mph - N/A   Clear
9:35 AM 1.4 °F -17.6 °F -9.4 °F 61% 30.52 in 10.0 mi NNW 15.0 mph 20.7 mph N/A   Clear
9:55 AM 1.4 °F -17.6 °F -9.4 °F 61% 30.52 in 10.0 mi NW 15.0 mph 21.9 mph N/A   Clear
10:15 AM 3.2 °F -16.5 °F -7.6 °F 61% 30.52 in 10.0 mi NNW 17.3 mph - N/A   Clear
10:35 AM 5.0 °F -11.6 °F -7.6 °F 56% 30.53 in 10.0 mi NNW 12.7 mph 21.9 mph N/A   Light Freezing Rain
10:55 AM 5.0 °F -11.6 °F -7.6 °F 56% 30.53 in 10.0 mi NNW 12.7 mph 19.6 mph N/A Snow Light Snow
11:15 AM 5.0 °F -12.3 °F -7.6 °F 56% 30.53 in 10.0 mi North 13.8 mph 20.7 mph N/A   Clear
11:35 AM 6.8 °F -11.3 °F -7.6 °F 52% 30.53 in 10.0 mi NNW 16.1 mph - N/A   Clear
11:55 AM 8.6 °F -7.0 °F -5.8 °F 52% 30.52 in 10.0 mi North 12.7 mph - N/A   Light Freezing Rain
12:15 PM 8.6 °F -7.0 °F -5.8 °F 52% 30.51 in 10.0 mi NNW 12.7 mph 18.4 mph N/A   Light Freezing Rain
12:35 PM 8.6 °F -7.0 °F -5.8 °F 52% 30.52 in 10.0 mi NNW 12.7 mph - N/A Snow Light Snow
12:55 PM 10.4 °F -1.5 °F -5.8 °F 48% 30.52 in 10.0 mi NNW 8.1 mph 18.4 mph N/A   Light Freezing Rain
1:15 PM 10.4 °F -2.4 °F -5.8 °F 48% 30.52 in 10.0 mi NNW 9.2 mph 16.1 mph N/A   Clear
1:35 PM 10.4 °F -3.3 °F -5.8 °F 48% 30.52 in 10.0 mi NNW 10.4 mph - N/A   Light Freezing Rain
1:55 PM 10.4 °F -3.3 °F -5.8 °F 48% 30.52 in 10.0 mi NW 10.4 mph 17.3 mph N/A Snow Light Snow
2:15 PM 10.4 °F -3.3 °F -5.8 °F 48% 30.52 in 10.0 mi NNW 10.4 mph 18.4 mph N/A Snow Light Snow
2:35 PM 10.4 °F -4.1 °F -5.8 °F 48% 30.51 in 10.0 mi NNW 11.5 mph - N/A   Clear
2:55 PM 10.4 °F -5.4 °F -5.8 °F 48% 30.51 in 10.0 mi NNW 13.8 mph - N/A Snow Light Snow
3:15 PM 10.4 °F -4.1 °F -5.8 °F 48% 30.51 in 10.0 mi NW 11.5 mph 18.4 mph N/A   Light Freezing Rain
3:35 PM 10.4 °F -4.1 °F -5.8 °F 48% 30.52 in 10.0 mi NNW 11.5 mph - N/A   Light Freezing Rain
3:55 PM 8.6 °F -7.0 °F -5.8 °F 52% 30.53 in 10.0 mi NNW 12.7 mph - N/A   Light Freezing Rain
4:15 PM 8.6 °F -5.5 °F -5.8 °F 52% 30.54 in 10.0 mi North 10.4 mph 17.3 mph N/A   Light Freezing Rain
4:35 PM 8.6 °F -4.7 °F -5.8 °F 52% 30.54 in 10.0 mi NNW 9.2 mph - N/A   Clear
5:55 PM 6.8 °F -7.8 °F -5.8 °F 56% 30.56 in 10.0 mi NNW 10.4 mph - N/A   Partly Cloudy
6:15 PM 6.8 °F -5.9 °F -5.8 °F 56% 30.57 in 10.0 mi NNW 8.1 mph - N/A   Clear
6:35 PM 5.0 °F -8.1 °F -5.8 °F 61% 30.59 in 10.0 mi NNW 8.1 mph - N/A   Clear
6:55 PM 5.0 °F -5.6 °F -5.8 °F 61% 30.59 in 10.0 mi NNW 5.8 mph - N/A   Clear
7:15 PM 5.0 °F -6.9 °F -5.8 °F 61% 30.61 in 10.0 mi NNW 6.9 mph - N/A   Mostly Cloudy
7:35 PM 5.0 °F -9.1 °F -5.8 °F 61% 30.61 in 10.0 mi NNW 9.2 mph - N/A   Overcast
7:55 PM 3.2 °F -12.2 °F -5.8 °F 66% 30.62 in 10.0 mi NNW 10.4 mph - N/A   Scattered Clouds
8:15 PM 3.2 °F -10.3 °F -5.8 °F 66% 30.63 in 10.0 mi NNW 8.1 mph 15.0 mph N/A   Mostly Cloudy
8:35 PM 3.2 °F -10.3 °F -5.8 °F 66% 30.63 in 10.0 mi NNW 8.1 mph - N/A   Overcast
8:55 PM 3.2 °F -13.9 °F -5.8 °F 66% 30.63 in 10.0 mi NNW 12.7 mph - N/A   Overcast
9:15 PM 3.2 °F -12.2 °F -7.6 °F 61% 30.64 in 10.0 mi NNW 10.4 mph 18.4 mph N/A   Scattered Clouds
9:35 PM 1.4 °F -15.3 °F -7.6 °F 66% 30.64 in 10.0 mi NNW 11.5 mph - N/A   Clear
9:55 PM 1.4 °F -15.3 °F -7.6 °F 66% 30.65 in 10.0 mi NNW 11.5 mph - N/A   Clear
10:15 PM 1.4 °F -15.3 °F -7.6 °F 66% 30.65 in 10.0 mi NNW 11.5 mph - N/A   Clear
10:35 PM 1.4 °F -15.3 °F -7.6 °F 66% 30.66 in 10.0 mi NNW 11.5 mph - N/A   Clear
10:55 PM -0.4 °F -14.7 °F -7.6 °F 72% 30.66 in 10.0 mi NNW 8.1 mph - N/A   Clear
11:15 PM -0.4 °F -14.7 °F -7.6 °F 72% 30.66 in 10.0 mi NNW 8.1 mph - N/A   Clear
11:35 PM -0.4 °F -13.4 °F -7.6 °F 72% 30.67 in 10.0 mi NNW 6.9 mph - N/A   Clear
11:55 PM -0.4 °F -14.7 °F -7.6 °F 72% 30.67 in 10.0 mi NNW 8.1 mph - N/A   Clear